Flag for Barbados Weather past 2 weeks in Bridgetown, Barbados

Now
86 °F

Scattered clouds.


Feels Like: 95 °F
Forecast: 81 / 86 °F
Wind: 23 mph from Northeast

Location: Grantley Adams

Current Time: Jul 31, 2015 at 3:31:24 PM

Latest Report: Jul 31, 2015 at 3:00 PM


Visibility: N/A

Pressure: 29.95 "Hg

Humidity: 70%

Dew point: 75 °F

Location of BridgetownLocation

Historic Weather in Bridgetown — Graph

°F

Bridgetown temperature yesterday

Maximum temperature yesterday: 88 °F (at 1:00 PM)
Minimum temperature yesterday: 77 °F (at 10:00 PM)
Average temperature yesterday: 82 °F

Past Weeks' High & Low Weather Summary

 TemperatureHumidityPressure
High88 °F (Jul 22, 1:00 PM)100% (Jul 30, 11:00 PM)30.07 "Hg (Jul 30, 11:00 PM)
Low77 °F (Jul 20, 4:00 AM)59% (Jul 18, 3:00 PM)29.92 "Hg (Jul 20, 3:00 PM)
Average82 °F78%29.99 "Hg
* Reported Jul 16 2:00 PM — Jul 31 2:00 PM, Bridgetown, Weather by CustomWeather, © 2015

Note: Actual official high and low records may vary slightly from our data, if they occured in-between our weather recording intervals... More about our weather records

Advertising

Bridgetown weather history for previous 24 hours

 ConditionsComfort  
Time TempWeatherWind HumidityBarometerVisibility
2:00 PM
Fri, Jul 31
88 °FScattered clouds.25 mph66%29.98 "HgN/A
1:00 PM88 °FScattered clouds.24 mph66%30.01 "HgN/A
12:00 PM86 °FPartly sunny.20 mph75%30.01 "HgN/A
11:00 AM84 °FScattered clouds.17 mph79%30.01 "HgN/A
10:00 AM84 °FPartly sunny.16 mph84%30.01 "HgN/A
9:00 AM84 °FBroken clouds.20 mph79%30.01 "HgN/A
8:00 AM82 °FPartly sunny.16 mph84%30.01 "HgN/A
7:00 AM81 °FPartly sunny.18 mph89%29.98 "HgN/A
6:00 AM81 °FBroken clouds.18 mph89%29.98 "HgN/A
5:00 AM81 °FPartly cloudy.18 mph89%29.95 "HgN/A
4:00 AM79 °FPartly cloudy.18 mph94%29.95 "HgN/A
3:00 AM81 °FScattered showers. Passing clouds.18 mph89%29.95 "Hg6 mi
2:00 AM81 °FScattered showers. Partly cloudy.15 mph89%29.98 "Hg4 mi
1:00 AM79 °FScattered showers. Partly cloudy.18 mph94%29.98 "Hg4 mi
12:00 AM79 °FScattered showers. Passing clouds.18 mph94%30.01 "Hg4 mi
11:00 PM
Thu, Jul 30
77 °FRain showers. Partly cloudy.20 mph100%30.01 "Hg3 mi
10:00 PM77 °FThunderstorms. Passing clouds.18 mph94%30.01 "Hg4 mi
9:00 PM79 °FRain showers. Passing clouds.17 mph94%30.01 "Hg4 mi
8:00 PM81 °FPartly cloudy.15 mph84%29.98 "HgN/A
7:00 PM82 °FPartly cloudy.17 mph84%29.98 "HgN/A
6:00 PM82 °FBroken clouds.17 mph84%29.95 "HgN/A
5:00 PM82 °FBroken clouds.18 mph79%29.95 "HgN/A
4:00 PM84 °FBroken clouds.17 mph79%29.95 "HgN/A
3:00 PM86 °FBroken clouds.18 mph75%29.95 "HgN/A
Weather by CustomWeather, © 2015

See weather overviewHow to use our weather pages